Location: Arbon
(43.0005°N, 0.7472°E)
Time: 10:49:07
(UTC+00:00)

Vanguard 2 Rocket - Pass Details

Date: 01 December 2020
Orbit: 554 x 3325 km, 32.9° (Epoch: 21 January)

Event Time Altitude Azimuth Distance (km) Brightness Sun altitude
Rises 04:15:28 0° 193° (SSW) 6,283 11.1 -31.0°
Reaches altitude 10° 04:20:45 10° 180° (S) 5,650 10.9 -30.1°
Maximum altitude 04:33:16 23° 136° (SE) 5,145 11.1 -27.8°
Drops below altitude 10° 04:46:48 10° 94° (E) 6,215 12.2 -25.3°
Sets 04:52:55 0° 82° (E) 7,047 12.7 -24.2°
